Volver al catálogo

SL-8 R/B

ActivoPO
NORAD 24678·ROCKET BODY·🇷🇺 Russia

Lanzado Dec 20, 1996 desde Plesetsk Cosmodrome

Loading…

Próximos Pases (próximas 24 horas)

TLE

ActualizadoSource: Space-Track

Época: Sep 14, 2026, 21:20 UTC

1 24678U 96071B   26257.88916062 -.00000017  00000-0 -34506-4 0  9994
2 24678  82.9355 110.6789 0023293 279.3199  96.9426 13.73861553490643

Sigue SL-8 R/B en tiempo real con AllMySat

Download on the App Store